• In Hungary
  • List of Countries
  • For 7 days
  • Water Temperature
  • Satellite Maps
  • Weather Map
  • News
  • Weather Widgets
  • user-avatar
    Login

    Hourly Weather Stadnyky

    Today, 24 June, Sunday

    Time Temperature Precipitation Wind Pressure Humidity
    00:00 +8°C° 0 mm 3 mps 742 mmHg 96%
    01:00 +8°C° 0 mm 3 mps 742 mmHg 96%
    02:00 +7°C° 0 mm 2 mps 742 mmHg 97%
    03:00 +7°C° 0 mm 2 mps 742 mmHg 97%
    04:00 +7°C° 0 mm 3 mps 742 mmHg 97%
    05:00 +7°C° 0 mm 3 mps 742 mmHg 97%
    06:00 +8°C° 0 mm 4 mps 742 mmHg 92%
    07:00 +10°C° 0 mm 4 mps 742 mmHg 88%
    08:00 +12°C° 0 mm 5 mps 742 mmHg 84%
    09:00 +13°C° 0.1 mm 5 mps 742 mmHg 78%
    10:00 +15°C° 0.1 mm 5 mps 742 mmHg 73%
    11:00 +16°C° 0.1 mm 5 mps 742 mmHg 67%
    12:00 +16°C° 0.5 mm 5 mps 742 mmHg 67%
    13:00 +17°C° 0.5 mm 5 mps 742 mmHg 67%
    14:00 +17°C° 0.5 mm 5 mps 742 mmHg 67%
    15:00 +17°C° 0.3 mm 5 mps 743 mmHg 66%
    16:00 +18°C° 0.3 mm 4 mps 743 mmHg 65%
    17:00 +18°C° 0.3 mm 4 mps 743 mmHg 64%
    18:00 +17°C° 0 mm 4 mps 743 mmHg 70%
    19:00 +16°C° 0 mm 3 mps 742 mmHg 76%
    20:00 +15°C° 0 mm 2 mps 742 mmHg 81%
    21:00 +13°C° 0.2 mm 3 mps 743 mmHg 85%
    22:00 +12°C° 0.2 mm 3 mps 743 mmHg 89%
    23:00 +11°C° 0.2 mm 3 mps 743 mmHg 93%

    Tomorrow, 25 June, Monday

    Time Temperature Precipitation Wind Pressure Humidity
    00:00 +11°C° 0 mm 3 mps 743 mmHg 93%
    01:00 +10°C° 0 mm 3 mps 743 mmHg 94%
    02:00 +10°C° 0 mm 3 mps 743 mmHg 94%
    03:00 +10°C° 0 mm 3 mps 744 mmHg 95%
    04:00 +9°C° 0 mm 3 mps 744 mmHg 95%
    05:00 +9°C° 0 mm 2 mps 744 mmHg 95%
    06:00 +11°C° 0 mm 3 mps 744 mmHg 90%
    07:00 +13°C° 0 mm 3 mps 745 mmHg 86%
    08:00 +16°C° 0 mm 3 mps 745 mmHg 81%
    09:00 +17°C° 0.1 mm 3 mps 745 mmHg 75%
    10:00 +18°C° 0.1 mm 3 mps 745 mmHg 69%
    11:00 +20°C° 0.1 mm 3 mps 745 mmHg 63%
    12:00 +20°C° 0.3 mm 3 mps 745 mmHg 61%
    13:00 +21°C° 0.3 mm 3 mps 745 mmHg 60%
    14:00 +21°C° 0.3 mm 3 mps 745 mmHg 58%
    15:00 +21°C° 0.3 mm 3 mps 745 mmHg 61%
    16:00 +21°C° 0.3 mm 3 mps 745 mmHg 64%
    17:00 +20°C° 0.3 mm 3 mps 745 mmHg 67%
    18:00 +19°C° 0.3 mm 3 mps 745 mmHg 73%
    19:00 +18°C° 0.3 mm 2 mps 745 mmHg 78%
    20:00 +16°C° 0.3 mm 1 mps 746 mmHg 84%
    21:00 +15°C° 0.1 mm 1 mps 746 mmHg 86%
    22:00 +14°C° 0.1 mm 1 mps 746 mmHg 88%
    23:00 +12°C° 0.1 mm 0 mps 746 mmHg 89%

    Day after tomorrow, 26 June, Tuesday

    Time Temperature Precipitation Wind Pressure Humidity
    00:00 +12°C° 0 mm 0 mps 746 mmHg 89%
    01:00 +12°C° 0 mm 0 mps 746 mmHg 90%
    02:00 +11°C° 0 mm 0 mps 746 mmHg 90%
    03:00 +11°C° 0 mm 0 mps 746 mmHg 90%
    04:00 +13°C° 0 mm 1 mps 746 mmHg 91%
    05:00 +13°C° 0 mm 1 mps 746 mmHg 91%
    06:00 +14°C° 0 mm 1 mps 746 mmHg 87%
    07:00 +16°C° 0 mm 1 mps 746 mmHg 82%
    08:00 +19°C° 0 mm 1 mps 746 mmHg 77%
    09:00 +20°C° 0.7 mm 1 mps 746 mmHg 73%
    10:00 +21°C° 0.7 mm 1 mps 746 mmHg 68%
    11:00 +23°C° 0.7 mm 1 mps 746 mmHg 64%
    12:00 +23°C° 0.6 mm 1 mps 746 mmHg 62%
    13:00 +23°C° 0.6 mm 1 mps 746 mmHg 61%
    14:00 +24°C° 0.6 mm 2 mps 746 mmHg 60%
    15:00 +23°C° 0.4 mm 2 mps 745 mmHg 62%
    16:00 +23°C° 0.4 mm 2 mps 745 mmHg 65%
    17:00 +23°C° 0.4 mm 1 mps 745 mmHg 67%
    18:00 +22°C° 0.5 mm 1 mps 745 mmHg 73%
    19:00 +19°C° 0.5 mm 2 mps 745 mmHg 79%
    20:00 +18°C° 0.5 mm 2 mps 745 mmHg 84%
    21:00 +18°C° 0.2 mm 1 mps 745 mmHg 86%
    22:00 +18°C° 0.2 mm 1 mps 745 mmHg 87%
    23:00 +16°C° 0.2 mm 1 mps 745 mmHg 89%

    27 June, Wednesday

    Time Temperature Precipitation Wind Pressure Humidity
    00:00 +16°C° 0.2 mm 1 mps 745 mmHg 89%
    01:00 +15°C° 0.2 mm 1 mps 745 mmHg 90%
    02:00 +15°C° 0.2 mm 1 mps 745 mmHg 91%
    03:00 +15°C° 0.2 mm 1 mps 745 mmHg 91%
    04:00 +15°C° 0.2 mm 1 mps 745 mmHg 92%
    05:00 +15°C° 0.2 mm 1 mps 745 mmHg 92%
    06:00 +16°C° 0.3 mm 1 mps 745 mmHg 91%
    07:00 +17°C° 0.3 mm 2 mps 745 mmHg 89%
    08:00 +18°C° 0.3 mm 2 mps 745 mmHg 88%
    09:00 +19°C° 0.6 mm 2 mps 745 mmHg 82%
    10:00 +20°C° 0.6 mm 2 mps 745 mmHg 77%
    11:00 +23°C° 0.6 mm 2 mps 745 mmHg 71%
    12:00 +23°C° 0.7 mm 2 mps 744 mmHg 69%
    13:00 +24°C° 0.7 mm 3 mps 744 mmHg 67%
    14:00 +24°C° 0.7 mm 3 mps 744 mmHg 65%
    15:00 +24°C° 0.3 mm 3 mps 744 mmHg 67%
    16:00 +24°C° 0.3 mm 3 mps 744 mmHg 69%
    17:00 +24°C° 0.3 mm 3 mps 743 mmHg 70%
    18:00 +22°C° 0.1 mm 3 mps 743 mmHg 74%
    19:00 +21°C° 0.1 mm 3 mps 743 mmHg 78%
    20:00 +20°C° 0.1 mm 3 mps 743 mmHg 82%
    21:00 +19°C° 0.3 mm 3 mps 743 mmHg 84%
    22:00 +19°C° 0.3 mm 3 mps 742 mmHg 86%
    23:00 +18°C° 0.3 mm 3 mps 742 mmHg 88%

    28 June, Thursday

    Time Temperature Precipitation Wind Pressure Humidity
    00:00 +18°C° 2.3 mm 3 mps 741 mmHg 91%
    01:00 +18°C° 2.3 mm 4 mps 741 mmHg 94%
    02:00 +18°C° 2.3 mm 4 mps 740 mmHg 97%
    03:00 +19°C° 2.8 mm 5 mps 739 mmHg 96%
    04:00 +19°C° 2.8 mm 5 mps 739 mmHg 96%
    05:00 +19°C° 2.8 mm 5 mps 738 mmHg 96%
    06:00 +20°C° 0.5 mm 5 mps 738 mmHg 95%
    07:00 +20°C° 0.5 mm 4 mps 738 mmHg 94%
    08:00 +20°C° 0.5 mm 3 mps 738 mmHg 93%
    09:00 +21°C° 0.1 mm 3 mps 738 mmHg 91%
    10:00 +22°C° 0.1 mm 3 mps 738 mmHg 90%
    11:00 +23°C° 0.1 mm 2 mps 738 mmHg 88%
    12:00 +24°C° 0.2 mm 2 mps 738 mmHg 84%
    13:00 +25°C° 0.2 mm 2 mps 738 mmHg 81%
    14:00 +26°C° 0.2 mm 2 mps 738 mmHg 78%
    15:00 +26°C° 0.3 mm 2 mps 738 mmHg 77%
    16:00 +26°C° 0.3 mm 2 mps 738 mmHg 76%
    17:00 +26°C° 0.3 mm 2 mps 738 mmHg 75%
    18:00 +25°C° 0.7 mm 2 mps 738 mmHg 80%
    19:00 +24°C° 0.7 mm 2 mps 738 mmHg 85%
    20:00 +23°C° 0.7 mm 2 mps 738 mmHg 89%
    21:00 +21°C° 0 mm 2 mps 738 mmHg 91%
    22:00 +20°C° 0 mm 2 mps 738 mmHg 92%
    23:00 +19°C° 0 mm 2 mps 738 mmHg 93%

    29 June, Friday

    Time Temperature Precipitation Wind Pressure Humidity
    00:00 +19°C° 0 mm 1 mps 738 mmHg 94%
    01:00 +19°C° 0 mm 1 mps 738 mmHg 94%
    02:00 +18°C° 0 mm 1 mps 738 mmHg 94%
    03:00 +18°C° 0.1 mm 1 mps 738 mmHg 95%
    04:00 +18°C° 0.1 mm 1 mps 738 mmHg 95%
    05:00 +18°C° 0.1 mm 1 mps 738 mmHg 96%
    06:00 +18°C° 0 mm 2 mps 738 mmHg 92%
    07:00 +19°C° 0 mm 2 mps 738 mmHg 88%
    08:00 +21°C° 0 mm 3 mps 738 mmHg 85%
    09:00 +22°C° 0 mm 3 mps 738 mmHg 78%
    10:00 +24°C° 0 mm 3 mps 738 mmHg 72%
    11:00 +25°C° 0 mm 3 mps 738 mmHg 65%
    12:00 +26°C° 0.1 mm 3 mps 738 mmHg 62%
    13:00 +26°C° 0.1 mm 3 mps 738 mmHg 60%
    14:00 +27°C° 0.1 mm 3 mps 738 mmHg 57%
    15:00 +27°C° 0.1 mm 3 mps 738 mmHg 59%
    16:00 +26°C° 0.1 mm 3 mps 738 mmHg 60%
    17:00 +26°C° 0.1 mm 3 mps 738 mmHg 61%
    18:00 +25°C° 0 mm 3 mps 738 mmHg 66%
    19:00 +23°C° 0 mm 2 mps 738 mmHg 72%
    20:00 +21°C° 0 mm 2 mps 738 mmHg 78%
    21:00 +20°C° 0 mm 2 mps 738 mmHg 80%
    22:00 +19°C° 0 mm 2 mps 738 mmHg 82%
    23:00 +17°C° 0 mm 2 mps 738 mmHg 85%
    Show more